Wind_Speed
41 42 44 45 45 47 48 48 49 49 50 50 49 49 49 49 48 48 47 47 46 46 45 45 44 44 44 44 43 44 43 43 43 44 43 43 43 42 42 42 41 41 40
42 42 44 45 46 47 49 49 50 51 52 52 52 52 51 50 50 50 49 50 50 49 48 48 47 46 46 45 46 45 45 45 44 44 45 45 45 44 44 44 43 42 42
41 42 43 44 46 48 50 51 52 52 53 53 53 53 53 53 53 52 51 51 51 51 51 51 51 50 49 48 47 46 47 47 46 46 46 46 46 46 46 45 45 45 44
42 42 43 44 45 47 49 51 52 53 53 54 54 54 54 54 54 53 53 53 54 53 53 53 52 52 51 50 50 49 48 48 47 46 47 47 47 47 47 47 47 47 46
41 41 42 43 44 46 48 49 51 52 53 54 55 55 55 54 55 55 54 55 55 55 54 54 54 53 53 52 51 51 50 49 48 48 47 47 47 47 48 47 47 47 47
40 41 41 42 43 45 47 48 50 51 52 53 54 55 55 55 55 55 55 55 55 56 55 56 55 54 54 54 53 53 53 52 51 50 49 49 49 48 49 49 48 48 48
39 40 41 42 43 44 46 48 49 50 51 53 55 55 56 56 56 57 56 56 56 56 56 56 56 56 56 56 55 55 55 54 53 52 51 51 50 50 50 50 50 50 49
38 39 40 41 42 43 45 46 48 49 51 53 55 55 56 56 56 56 56 56 56 56 56 57 57 57 57 57 57 57 56 56 55 54 53 53 52 52 52 51 52 52 51
38 39 40 41 42 43 44 45 46 48 49 51 54 55 55 56 56 57 57 57 56 56 57 57 58 57 57 58 58 57 57 57 56 55 55 54 54 54 54 53 53 53 53
39 39 40 41 42 42 43 44 45 46 48 50 52 54 54 55 55 56 57 57 56 55 55 54 55 57 57 58 57 57 58 57 56 56 56 56 55 55 55 54 54 53 53
38 39 40 41 42 42 42 43 44 45 47 49 50 51 53 54 55 56 56 56 56 57 56 55 54 55 56 57 57 57 57 57 56 56 57 56 56 56 56 55 55 54 54
39 40 40 40 41 41 42 42 43 44 45 47 48 50 51 52 53 54 56 56 55 55 55 56 56 55 55 56 57 57 57 56 56 56 56 56 56 56 56 56 56 55 55
39 39 39 39 40 40 41 41 42 43 43 45 46 48 50 51 51 52 53 54 55 55 55 55 55 54 54 54 55 56 56 56 56 55 55 55 55 55 55 56 56 56 56
38 38 39 39 39 40 40 40 41 42 42 43 45 47 48 50 51 52 52 52 53 53 54 53 53 54 54 53 53 54 54 54 54 54 54 54 53 53 53 54 55 56 56
37 38 38 39 39 39 39 39 40 41 41 41 43 44 46 47 49 51 51 51 51 52 51 51 51 52 53 52 51 52 53 53 52 52 53 53 53 53 54 54 54 56 56
37 37 38 39 39 39 39 39 39 40 40 40 41 42 43 45 47 49 50 50 49 50 49 49 49 50 51 51 51 50 51 51 52 52 51 52 53 53 53 54 54 55 55
37 37 38 38 39 39 39 40 40 40 40 40 40 41 41 43 45 47 48 48 48 47 47 47 47 47 49 50 50 50 50 49 50 51 51 51 51 52 52 53 54 54 54
37 37 38 38 38 39 40 41 41 40 40 40 41 41 41 42 44 45 45 46 46 46 45 45 45 46 46 48 49 49 49 49 50 50 51 51 50 50 51 52 53 53 53
38 38 38 38 38 38 39 40 40 40 40 40 39 39 40 40 41 42 43 43 44 44 44 44 44 45 46 47 47 48 49 49 49 49 50 50 49 49 50 50 50 51 52
38 38 38 38 38 37 38 38 38 39 39 38 37 38 38 38 38 39 40 41 42 43 43 43 43 44 44 45 45 46 47 47 47 47 47 48 49 49 49 49 49 48 49
37 38 38 37 37 37 37 37 37 37 36 35 35 35 36 36 36 36 37 38 39 40 41 41 41 42 42 43 44 44 44 43 44 44 45 46 47 48 48 48 48 48 48
38 38 38 37 37 37 36 36 35 34 34 33 33 34 34 34 34 35 35 36 37 37 38 38 39 40 40 41 42 42 42 42 42 42 43 44 45 47 47 48 48 47 47
37 37 37 36 36 36 35 34 34 34 33 33 33 32 33 33 33 33 33 34 35 35 36 36 36 37 38 39 41 42 42 42 41 41 42 43 43 45 46 47 47 47 46
37 36 36 35 35 34 34 33 32 32 32 32 32 32 32 32 32 32 32 32 33 34 34 35 35 36 36 37 39 40 41 42 42 41 41 42 43 44 44 45 46 46 46
36 36 35 34 33 32 32 31 31 31 31 31 31 31 31 31 31 31 31 31 31 32 33 34 35 36 36 36 37 38 39 39 39 40 40 41 41 42 42 43 44 44 45
35 35 34 33 32 31 31 30 30 30 30 30 31 31 31 30 31 31 31 31 31 31 31 32 33 34 35 35 35 36 37 37 37 38 38 39 39 40 40 40 41 41 42
Wind_Direction
269 268 265 263 262 260 258 257 256 256 256 256 256 257 256 256 256 255 254 254 254 254 255 255 255 255 253 253 254 254 253 254 253 252 251 250 250 250 250 249 249 248 248
272 270 268 265 263 261 259 257 256 256 255 255 256 256 256 256 256 255 254 254 254 255 255 256 256 255 254 254 255 255 254 254 254 254 252 251 250 250 250 250 250 249 249
273 271 269 267 265 262 259 257 256 256 255 255 255 255 255 256 256 255 254 254 255 255 255 256 256 257 256 255 255 255 255 254 253 253 253 252 251 250 250 250 250 250 250
274 272 270 269 267 264 261 259 257 256 255 255 255 255 255 256 256 256 255 255 255 255 255 256 256 256 256 256 255 255 254 254 253 252 253 253 252 251 250 249 249 250 250
276 274 271 270 269 267 263 260 257 256 255 255 254 254 254 255 256 256 256 255 256 256 256 256 256 257 257 255 255 254 254 253 253 253 252 252 252 252 251 250 250 249 250
278 275 274 272 270 269 266 261 258 257 256 255 255 254 254 255 255 256 256 255 256 256 256 256 257 257 257 256 255 254 254 253 253 253 252 251 251 251 251 251 250 249 249
279 276 275 274 272 270 268 263 259 258 257 256 255 255 254 254 256 256 256 255 256 256 256 256 256 256 256 255 255 254 254 254 253 253 253 252 252 252 251 251 250 249 249
280 278 277 275 273 272 269 265 261 259 258 257 256 256 255 255 256 256 256 256 255 256 257 256 256 256 255 254 254 254 254 254 254 253 253 252 252 252 252 251 250 250 249
281 280 279 277 275 273 270 267 264 261 260 259 257 256 256 256 256 256 256 257 256 256 257 256 256 256 255 254 253 253 253 253 254 253 252 252 251 252 251 251 251 250 249
283 282 281 278 277 275 272 269 266 264 263 262 260 258 257 257 257 257 257 257 257 256 256 255 255 255 254 254 253 252 252 252 252 252 252 251 251 252 251 251 250 250 250
285 284 283 281 279 277 274 271 268 266 266 264 262 261 259 258 258 257 257 257 257 256 255 254 255 254 254 252 252 252 251 251 251 251 251 250 250 250 249 250 250 250 250
286 285 284 283 281 279 276 273 270 268 269 267 264 262 260 258 258 258 257 257 258 257 257 255 254 254 253 252 251 251 251 251 250 250 250 250 250 249 249 249 249 249 249
287 286 285 284 282 280 277 274 271 270 271 269 266 263 261 258 258 259 258 258 257 257 258 256 254 252 252 251 251 250 250 250 250 249 249 249 249 249 249 248 248 248 248
289 287 286 284 283 281 279 276 273 273 273 272 268 265 263 260 259 259 259 258 257 257 257 256 254 252 251 251 250 250 250 249 249 249 249 249 248 248 248 248 248 248 248
290 289 288 286 283 282 280 277 275 275 275 273 271 268 265 263 261 260 260 260 259 259 258 256 254 252 250 250 250 249 248 249 249 248 248 248 247 248 248 248 248 248 248
291 290 289 287 284 282 281 278 277 277 277 275 274 271 268 265 263 261 261 260 260 259 257 256 255 253 250 249 249 248 248 248 247 247 248 248 247 247 248 249 248 248 248
292 291 290 289 286 284 282 279 278 279 279 277 276 273 270 267 265 263 262 260 259 258 256 256 255 254 252 250 250 250 249 248 247 247 247 247 247 247 248 248 248 248 248
294 292 291 290 287 286 283 281 280 280 280 279 277 275 271 269 267 265 263 260 258 257 257 256 255 254 252 251 251 250 249 249 249 248 248 248 247 247 248 248 248 248 247
297 294 292 291 289 287 285 283 281 281 281 279 277 275 273 271 269 266 263 261 259 258 257 256 255 254 253 252 252 251 249 249 249 249 248 247 247 247 248 248 248 248 248
300 297 295 293 291 289 287 284 283 282 281 279 277 276 274 272 269 266 264 262 260 258 258 256 255 253 252 251 251 250 249 249 248 248 247 246 246 246 247 248 248 248 248
301 299 297 295 293 292 289 286 285 283 281 279 278 276 276 274 270 267 265 262 260 259 257 255 253 251 249 249 248 248 248 247 247 246 246 246 245 245 245 246 247 247 248
302 300 299 297 294 292 290 288 285 283 282 280 279 277 275 274 272 269 266 263 260 258 256 254 252 250 248 247 247 246 247 246 245 246 245 246 245 244 244 245 246 247 248
303 302 300 298 296 294 291 289 287 284 283 281 280 278 276 275 274 271 268 266 262 258 256 253 251 249 248 247 246 246 246 246 246 247 246 245 245 244 243 245 246 246 247
303 302 301 299 298 295 293 291 289 287 285 283 280 278 276 275 273 271 269 267 264 259 255 252 250 248 247 246 245 245 246 246 246 246 245 245 244 242 242 243 244 245 247
304 302 300 299 297 296 295 291 290 288 287 284 281 279 276 273 272 270 269 267 264 261 256 253 251 248 246 246 246 246 246 246 245 245 244 245 243 242 242 243 243 244 245
305 304 301 299 298 297 296 295 293 290 289 286 283 280 277 273 271 268 266 266 264 260 257 255 252 249 246 245 244 245 244 244 244 244 243 242 241 242 242 242 242 244 245
Height
5711 5710 5710 5710 5710 5711 5713 5714 5716 5717 5719 5720 5722 5723 5725 5726 5727 5728 5730 5731 5733 5734 5736 5737 5739 5740 5742 5744 5745 5747 5749 5750 5752 5754 5756 5758 5760 5762 5764 5766 5769 5771 5773
5699 5698 5697 5696 5697 5697 5698 5700 5701 5703 5705 5706 5708 5710 5711 5713 5714 5715 5717 5719 5721 5722 5724 5726 5727 5728 5730 5732 5733 5735 5737 5739 5741 5743 5745 5747 5750 5752 5754 5756 5759 5761 5763
5686 5685 5684 5683 5683 5683 5683 5685 5686 5688 5690 5692 5694 5696 5697 5699 5700 5702 5704 5706 5707 5710 5711 5713 5714 5716 5718 5720 5721 5723 5725 5727 5729 5730 5733 5735 5738 5741 5744 5746 5748 5751 5753
5674 5672 5671 5670 5669 5668 5668 5670 5671 5673 5674 5676 5679 5681 5683 5685 5687 5688 5690 5692 5694 5696 5698 5700 5701 5703 5705 5707 5709 5710 5712 5714 5716 5718 5720 5723 5725 5728 5732 5735 5737 5740 5743
5661 5660 5658 5657 5656 5655 5654 5655 5656 5658 5660 5662 5664 5666 5668 5670 5672 5674 5676 5677 5679 5681 5683 5685 5687 5689 5691 5693 5695 5697 5699 5701 5703 5706 5708 5710 5713 5715 5719 5723 5726 5729 5731
5649 5647 5645 5644 5643 5642 5641 5641 5642 5644 5645 5647 5649 5651 5653 5655 5657 5659 5661 5663 5664 5666 5668 5671 5673 5675 5677 5679 5681 5683 5685 5688 5690 5693 5696 5698 5701 5704 5706 5710 5713 5717 5720
5637 5635 5633 5631 5630 5629 5628 5627 5628 5630 5631 5632 5634 5635 5637 5640 5641 5644 5646 5647 5649 5651 5653 5655 5658 5660 5662 5664 5667 5669 5672 5674 5677 5680 5683 5686 5688 5691 5694 5697 5700 5704 5708
5625 5623 5621 5619 5617 5616 5615 5614 5614 5615 5617 5618 5619 5620 5622 5624 5626 5628 5630 5632 5634 5636 5638 5640 5642 5644 5646 5649 5651 5654 5657 5660 5663 5666 5669 5672 5675 5678 5681 5684 5687 5690 5695
5614 5611 5609 5606 5604 5603 5602 5601 5601 5602 5602 5603 5604 5606 5607 5609 5610 5612 5614 5616 5618 5620 5622 5624 5626 5628 5630 5633 5636 5639 5642 5645 5648 5651 5654 5658 5661 5664 5667 5671 5674 5677 5681
5603 5599 5597 5594 5592 5590 5589 5588 5588 5588 5588 5589 5589 5590 5592 5594 5595 5597 5598 5600 5602 5604 5606 5608 5610 5612 5614 5617 5620 5623 5626 5629 5633 5636 5639 5643 5646 5650 5653 5657 5660 5663 5667
5591 5588 5585 5582 5580 5578 5576 5575 5575 5575 5575 5575 5575 5575 5577 5578 5579 5581 5582 5583 5586 5588 5590 5592 5594 5596 5599 5601 5604 5607 5610 5614 5617 5620 5624 5628 5631 5635 5639 5643 5646 5650 5653
5580 5577 5574 5571 5568 5566 5564 5562 5562 5561 5561 5560 5560 5561 5561 5562 5563 5565 5566 5568 5570 5572 5573 5576 5578 5580 5583 5585 5588 5592 5595 5598 5601 5605 5608 5612 5616 5620 5624 5628 5632 5636 5640
5568 5565 5562 5559 5557 5554 5552 5550 5549 5548 5547 5547 5546 5546 5546 5547 5548 5549 5551 5552 5554 5556 5558 5560 5562 5565 5567 5570 5573 5576 5579 5582 5586 5589 5593 5597 5601 5605 5609 5613 5617 5621 5626
5557 5554 5551 5548 5545 5543 5541 5539 5537 5536 5534 5533 5532 5532 5532 5532 5533 5534 5536 5537 5539 5540 5542 5544 5547 5549 5552 5555 5558 5561 5564 5568 5571 5575 5579 5583 5587 5591 5595 5599 5603 5607 5611
5547 5544 5541 5538 5534 5532 5529 5527 5525 5524 5522 5521 5519 5518 5518 5518 5519 5520 5521 5522 5523 5525 5527 5529 5532 5534 5537 5540 5543 5546 5550 5553 5557 5561 5565 5569 5573 5577 5581 5585 5589 5592 5596
5537 5533 5530 5526 5523 5521 5518 5516 5514 5512 5510 5509 5507 5505 5505 5505 5505 5505 5506 5507 5509 5511 5512 5514 5517 5519 5523 5526 5529 5532 5536 5540 5544 5548 5551 5555 5559 5563 5566 5570 5574 5578 5582
5526 5523 5519 5516 5512 5509 5507 5504 5502 5500 5498 5496 5494 5493 5492 5491 5491 5492 5493 5494 5495 5496 5498 5500 5503 5506 5509 5512 5515 5518 5522 5526 5530 5534 5537 5541 5545 5549 5552 5556 5559 5564 5568
5516 5512 5508 5505 5501 5498 5495 5493 5490 5488 5486 5484 5482 5480 5479 5478 5478 5478 5479 5480 5482 5483 5485 5487 5489 5493 5496 5498 5501 5504 5507 5511 5515 5520 5523 5527 5531 5535 5538 5542 5545 5549 5554
5506 5502 5497 5494 5490 5487 5483 5481 5479 5476 5474 5471 5469 5467 5466 5466 5465 5465 5466 5467 5469 5470 5472 5474 5476 5479 5482 5485 5488 5491 5494 5498 5502 5506 5509 5513 5517 5521 5525 5528 5532 5536 5540
5496 5491 5487 5483 5479 5475 5472 5470 5467 5464 5462 5460 5458 5456 5454 5454 5453 5453 5454 5454 5456 5457 5459 5461 5463 5466 5469 5472 5475 5478 5481 5485 5489 5493 5496 5500 5504 5507 5510 5514 5518 5522 5526
5486 5481 5476 5472 5468 5464 5461 5458 5456 5453 5450 5448 5446 5445 5443 5442 5442 5442 5442 5442 5443 5445 5447 5449 5451 5453 5456 5459 5462 5465 5469 5472 5476 5480 5483 5487 5490 5494 5498 5501 5505 5509 5513
5476 5471 5466 5462 5457 5454 5451 5448 5445 5442 5440 5438 5436 5434 5433 5432 5431 5431 5430 5431 5431 5433 5434 5436 5439 5441 5444 5447 5450 5453 5457 5460 5463 5467 5471 5474 5477 5481 5485 5489 5493 5496 5499
5466 5461 5456 5452 5447 5443 5440 5437 5435 5432 5430 5427 5425 5424 5422 5421 5420 5420 5420 5420 5420 5421 5423 5425 5427 5429 5432 5435 5438 5442 5445 5448 5451 5455 5458 5461 5464 5468 5473 5476 5480 5483 5487
5456 5451 5447 5442 5438 5434 5430 5427 5424 5422 5420 5417 5415 5414 5412 5411 5410 5410 5409 5409 5409 5410 5412 5414 5416 5418 5421 5424 5427 5430 5434 5437 5440 5443 5446 5449 5452 5456 5460 5464 5468 5471 5475
5447 5442 5437 5433 5428 5424 5421 5418 5415 5413 5410 5408 5406 5404 5403 5402 5401 5400 5399 5399 5400 5400 5401 5403 5405 5407 5410 5413 5416 5419 5422 5425 5428 5431 5435 5438 5441 5445 5448 5452 5456 5460 5464
5437 5432 5428 5424 5420 5416 5412 5409 5406 5403 5401 5399 5396 5394 5393 5392 5391 5390 5390 5389 5389 5390 5391 5392 5394 5396 5399 5402 5405 5408 5411 5414 5417 5420 5423 5427 5430 5434 5438 5442 5446 5450 5453